Location: Haieshausen
(51.8387°N, 9.9720°E)
Time: 03:39:52
(UTC+00:00)

Cosmos 1842 - Pass Details

Date: 14 July 2020
Orbit: 522 x 536 km, 82.5° (Epoch: 10 August)

Event Time Altitude Azimuth Distance (km) Brightness Sun altitude
Rises 02:15:42 0° 353° (N) 2,698 7.6 -7.7°
Reaches altitude 10° 02:17:56 10° 0° (N) 1,803 6.8 -7.5°
Maximum altitude 02:21:45 45° 74° (ENE) 737 4.5 -7.1°
Drops below altitude 10° 02:25:33 10° 149° (SSE) 1,792 5.8 -6.7°
Sets 02:27:46 0° 155° (SSE) 2,679 6.6 -6.5°
